User: anonymous   Login
Location: Caltech
(34.1382°N, 118.1253°W)
Time: 14:28:05
(UTC-08:00)
Language:

NOSS 3-2 (A) - Orbit

View from above orbital plane
View from above orbital plane
View from above satellite
View from above satellite

Ground track
Ground track

The orbit data is extracted from the following two-line orbital elements,

1 28095U 03054A   15007.18589350 0.00000000  00000-0  00000-0 0    01
2 28095  63.4290  68.2493 0228000 358.2483   1.7517 13.41301229    04
Epoch (UTC): 07 January 2015 04:27:41
Eccentricity: 0.0228000
inclination: 63.4290°
perigee height: 934 km
apogee height: 1275 km
right ascension of ascending node: 68.2493°
argument of perigee: 358.2483°
revolutions per day: 13.41301229
mean anomaly at epoch: 1.7517°
orbit number at epoch: 0

The dashed part of the orbit path shows where the satellite is in the earth's shadow,  

DLR